User: anonymous   Login
Location: Unspecified
(0.0000°N, 0.0000°E)
Time: 04:41:41
(UTC+00:00)
Language:

Olympus - Orbit

View from above orbital plane
View from above orbital plane
View from above satellite
View from above satellite

Ground track
Ground track

The orbit data is extracted from the following two-line orbital elements,

1 20122U 89053A   18292.01846483 -.00000126  00000-0  00000+0 0  9997
2 20122  14.7485 358.0955 0017729 267.6334  89.2686  1.01368039 92494
Epoch (UTC): 19 October 2018 00:26:35
Eccentricity: 0.0017729
inclination: 14.7485°
perigee height: 35407 km
apogee height: 35556 km
right ascension of ascending node: 358.0955°
argument of perigee: 267.6334°
revolutions per day: 1.01368039
mean anomaly at epoch: 89.2686°
orbit number at epoch: 9249

The dashed part of the orbit path shows where the satellite is in the earth's shadow,  

DLR